TimeEST,TemperatureF,Dew PointF,Humidity,Sea Level PressureIn,VisibilityMPH,Wind Direction,Wind SpeedMPH,Gust SpeedMPH,PrecipitationIn,Events,Conditions,WindDirDegrees,DateUTC
12:53 AM,15.1,12.0,88,30.02,7.0,Calm,Calm,-,N/A,,Clear,0,2013-01-04 05:53:00
1:53 AM,17.1,12.0,81,30.02,8.0,Calm,Calm,-,N/A,,Scattered Clouds,0,2013-01-04 06:53:00
3:53 AM,15.1,10.9,84,30.01,7.0,Calm,Calm,-,N/A,,Clear,0,2013-01-04 08:53:00
4:53 AM,14.0,10.9,88,30.01,8.0,Calm,Calm,-,N/A,,Clear,0,2013-01-04 09:53:00
5:53 AM,14.0,10.9,88,30.02,6.0,Calm,Calm,-,N/A,,Clear,0,2013-01-04 10:53:00
6:53 AM,12.9,10.0,88,30.03,7.0,SSE,3.5,-,N/A,,Clear,160,2013-01-04 11:53:00
7:53 AM,14.0,12.0,92,30.05,5.0,Calm,Calm,-,N/A,,Clear,0,2013-01-04 12:53:00
8:53 AM,19.0,16.0,88,30.05,7.0,Calm,Calm,-,N/A,,Overcast,0,2013-01-04 13:53:00
9:53 AM,28.9,21.9,75,30.03,10.0,SSE,4.6,-,N/A,,Overcast,160,2013-01-04 14:53:00
10:53 AM,33.1,21.9,64,30.01,10.0,SSW,8.1,-,N/A,,Overcast,200,2013-01-04 15:53:00
11:53 AM,35.1,21.0,57,29.97,10.0,SW,8.1,-,N/A,,Overcast,230,2013-01-04 16:53:00
12:53 PM,36.0,19.9,52,29.93,10.0,WSW,8.1,17.3,N/A,,Partly Cloudy,240,2013-01-04 17:53:00
1:53 PM,37.0,21.0,52,29.91,10.0,Variable,4.6,-,N/A,,Clear,0,2013-01-04 18:53:00
2:53 PM,37.0,19.9,50,29.91,10.0,SW,10.4,17.3,N/A,,Clear,230,2013-01-04 19:53:00
3:53 PM,37.0,19.9,50,29.91,10.0,WSW,5.8,-,N/A,,Clear,240,2013-01-04 20:53:00
4:53 PM,35.1,19.9,54,29.90,10.0,SW,4.6,-,N/A,,Clear,220,2013-01-04 21:53:00
5:53 PM,34.0,19.0,54,29.91,10.0,SW,5.8,-,N/A,,Clear,230,2013-01-04 22:53:00
6:53 PM,35.1,19.0,52,29.93,10.0,SSW,5.8,-,N/A,,Clear,210,2013-01-04 23:53:00
7:53 PM,32.0,18.0,56,29.94,10.0,Variable,5.8,-,N/A,,Clear,0,2013-01-05 00:53:00
8:53 PM,32.0,18.0,56,29.93,10.0,SSW,5.8,-,N/A,,Clear,210,2013-01-05 01:53:00
9:53 PM,33.1,18.0,54,29.93,10.0,SW,4.6,-,N/A,,Clear,230,2013-01-05 02:53:00
10:53 PM,30.9,17.1,57,29.94,10.0,West,8.1,-,N/A,,Clear,270,2013-01-05 03:53:00
11:53 PM,32.0,17.1,54,29.94,10.0,West,5.8,-,N/A,,Clear,280,2013-01-05 04:53:00